Weather History for Shelton, WA

Change the Weather History Date:

Monday, October 29, 2012

  Actual Average Record
Temperature  
Mean Temperature 54 °F -  
Max Temperature 57 °F 54 °F 64 °F (1987)
Min Temperature 50 °F 39 °F 24 °F (1971)
Degree Days  
Heating Degree Days 12    
Growing Degree Days 4 (Base 50)    
Moisture  
Dew Point 53 °F    
Average Humidity 96    
Maximum Humidity 100    
Minimum Humidity 84    
Precipitation  
Precipitation 0.61 in - - ()
Sea Level Pressure  
Sea Level Pressure 29.86 in    
Wind  
Wind Speed 7 mph (SW)    
Max Wind Speed 23 mph    
Max Gust Speed 34 mph    
Visibility 6 miles    
Events Rain    
Averages and records for this station are not official NWS values.
T = Trace of Precipitation, MM = Missing Value Source: NWS Daily Summary

Daily Weather History Graph

Daily Weather History Graph

Search for Another Location

Airport:

Trip Planner

Search our weather history database for the weather conditions in past years. The results will help you decide how hot, cold, wet, or windy it might be!

Date:

Astronomy

Oct. 29, 2012 Rise Set
Actual Time 7:52 AM PDT 5:59 PM PDT
Civil Twilight 7:20 AM PDT 6:31 PM PDT
Nautical Twilight 6:44 AM PDT 7:07 PM PDT
Astronomical Twilight 6:08 AM PDT 7:42 PM PDT
Moon 5:51 PM PDT (10/29) 7:50 AM PDT (10/29)
Length of Visible Light 11h 10m
Length of Day
10h 07m
Full, 100% of the Moon is Illuminated
Oct 29
Full
Oct 29
Full
Nov 6
Last Quarter
Nov 13
New
Nov 20
First Quarter

Hourly Weather History & Observations

Time (PDT) Temp. Dew Point Humidity Pressure Visibility Wind Dir Wind Speed Gust Speed Precip Events Conditions
12:26 AM 50.0 °F 48.2 °F 94% 29.76 in 1.8 mi Calm Calm - 0.05 in Rain Heavy Rain
12:32 AM 50.0 °F 50.0 °F 100% 29.75 in 1.5 mi Calm Calm - 0.12 in Rain Heavy Rain
12:39 AM 50.0 °F 50.0 °F 100% 29.76 in 2.0 mi Calm Calm - 0.19 in Rain Rain
12:49 AM 50.0 °F 50.0 °F 100% 29.75 in 3.0 mi Calm Calm - 0.23 in Rain Rain
12:53 AM 50.0 °F 50.0 °F 100% 29.75 in 4.0 mi Calm Calm - 0.24 in Rain Light Rain
1:48 AM 50.0 °F 50.0 °F 100% 29.74 in 4.0 mi South 3.5 mph - 0.08 in Rain Rain
1:53 AM 50.0 °F 50.0 °F 100% 29.75 in 4.0 mi Calm Calm - 0.08 in Rain Light Rain
2:07 AM 50.0 °F 50.0 °F 100% 29.73 in 2.0 mi SE 4.6 mph - 0.05 in Rain Heavy Rain
2:24 AM 50.0 °F 50.0 °F 100% 29.73 in 3.0 mi SSE 3.5 mph - N/A Rain Light Rain
2:33 AM 50.0 °F 50.0 °F 100% 29.73 in 3.0 mi Calm Calm - 0.11 in Rain Light Rain
2:53 AM 50.0 °F 50.0 °F 100% 29.73 in 3.0 mi South 3.5 mph - 0.12 in Rain Light Rain
3:04 AM 50.0 °F 50.0 °F 100% 29.72 in 4.0 mi Calm Calm - 0.00 in   Overcast
3:13 AM 50.0 °F 50.0 °F 100% 29.72 in 1.8 mi Calm Calm - N/A Rain Light Rain
3:22 AM 50.0 °F 50.0 °F 100% 29.72 in 1.5 mi Calm Calm - 0.05 in Rain Light Rain
3:30 AM 50.0 °F 50.0 °F 100% 29.72 in 3.0 mi WNW 3.5 mph - 0.06 in Rain Light Rain
3:43 AM 50.0 °F 50.0 °F 100% 29.72 in 2.5 mi Calm Calm - 0.08 in Rain Light Rain
3:53 AM 51.1 °F 50.0 °F 96% 29.73 in 2.5 mi West 3.5 mph - 0.08 in Rain Light Rain
4:02 AM 51.8 °F 50.0 °F 94% 29.72 in 2.0 mi West 3.5 mph - N/A Rain Light Rain
4:14 AM 51.8 °F 51.8 °F 100% 29.72 in 2.5 mi West 6.9 mph - 0.02 in Rain Light Rain
4:32 AM 51.8 °F 51.8 °F 100% 29.72 in 3.0 mi WSW 6.9 mph - N/A Rain Light Rain
4:50 AM 51.8 °F 51.8 °F 100% 29.72 in 4.0 mi SW 4.6 mph - 0.04 in Rain Light Rain
4:53 AM 52.0 °F 52.0 °F 100% 29.73 in 3.0 mi SW 4.6 mph - 0.05 in   Overcast
5:18 AM 53.6 °F 53.6 °F 100% 29.72 in 3.0 mi WSW 4.6 mph - N/A   Overcast
5:53 AM 57.9 °F 55.9 °F 93% 29.73 in 5.0 mi SSW 16.1 mph 28.8 mph N/A   Overcast
6:53 AM 57.0 °F 55.9 °F 96% 29.77 in 10.0 mi SW 20.7 mph 27.6 mph 0.02 in   Overcast
7:53 AM 57.0 °F 55.0 °F 93% 29.80 in 3.0 mi SW 19.6 mph 31.1 mph 0.00 in Rain Light Rain
8:30 AM 55.4 °F 53.6 °F 94% 29.82 in 7.0 mi SW 23.0 mph 34.5 mph 0.00 in   Overcast
8:53 AM 55.9 °F 54.0 °F 93% 29.84 in 6.0 mi SW 17.3 mph 26.5 mph 0.00 in   Overcast
9:08 AM 55.4 °F 53.6 °F 94% 29.84 in 6.0 mi SW 21.9 mph 31.1 mph N/A   Overcast
9:18 AM 55.4 °F 53.6 °F 94% 29.85 in 1.8 mi SW 19.6 mph 29.9 mph 0.00 in Rain Light Rain
9:21 AM 55.4 °F 53.6 °F 94% 29.85 in 1.5 mi WSW 16.1 mph 29.9 mph 0.00 in Rain Light Rain
9:38 AM 55.4 °F 53.6 °F 94% 29.86 in 3.0 mi SW 19.6 mph 28.8 mph 0.01 in   Overcast
9:46 AM 55.4 °F 53.6 °F 94% 29.86 in 1.8 mi SW 17.3 mph 27.6 mph 0.01 in   Overcast
9:53 AM 55.0 °F 54.0 °F 96% 29.88 in 2.5 mi SW 20.7 mph 25.3 mph 0.01 in   Overcast
10:05 AM 55.4 °F 53.6 °F 94% 29.88 in 1.8 mi SW 17.3 mph 26.5 mph 0.00 in Rain Light Rain
10:19 AM 55.4 °F 53.6 °F 94% 29.88 in 3.0 mi SW 20.7 mph 26.5 mph 0.00 in   Overcast
10:53 AM 55.9 °F 54.0 °F 93% 29.91 in 6.0 mi SW 13.8 mph 20.7 mph 0.00 in   Overcast
10:59 AM 55.4 °F 53.6 °F 94% 29.91 in 2.0 mi SW 18.4 mph 25.3 mph 0.00 in Rain Light Rain
11:09 AM 55.4 °F 53.6 °F 94% 29.91 in 3.0 mi SW 15.0 mph 26.5 mph 0.01 in Rain Light Rain
11:35 AM 55.4 °F 53.6 °F 94% 29.92 in 10.0 mi SW 18.4 mph 28.8 mph 0.01 in   Overcast
11:50 AM 55.4 °F 53.6 °F 94% 29.93 in 10.0 mi SW 17.3 mph 25.3 mph 0.01 in   Overcast
11:53 AM 55.9 °F 54.0 °F 93% 29.94 in 10.0 mi SW 17.3 mph 25.3 mph 0.01 in   Overcast
12:53 PM 57.0 °F 53.1 °F 87% 29.96 in 10.0 mi SW 16.1 mph 24.2 mph N/A   Overcast
1:30 PM 57.2 °F 53.6 °F 88% 29.96 in 10.0 mi SW 17.3 mph 23.0 mph N/A   Overcast
1:53 PM 57.9 °F 53.1 °F 84% 29.97 in 10.0 mi SW 13.8 mph 21.9 mph N/A   Overcast
2:05 PM 57.2 °F 53.6 °F 88% 29.97 in 10.0 mi SW 13.8 mph - N/A   Overcast
2:26 PM 57.2 °F 53.6 °F 88% 29.97 in 10.0 mi SW 17.3 mph - N/A   Overcast
2:53 PM 57.0 °F 53.1 °F 87% 29.99 in 10.0 mi SW 12.7 mph - N/A   Mostly Cloudy
3:01 PM 57.2 °F 53.6 °F 88% 29.98 in 10.0 mi West 13.8 mph - N/A   Overcast
3:53 PM 57.0 °F 53.1 °F 87% 30.00 in 10.0 mi SW 10.4 mph 19.6 mph N/A   Overcast
4:00 PM 57.2 °F 53.6 °F 88% 30.00 in 10.0 mi WSW 9.2 mph - N/A   Overcast
4:53 PM 55.0 °F 53.1 °F 93% 30.01 in 10.0 mi SW 11.5 mph - N/A   Overcast
5:53 PM 55.0 °F 53.1 °F 93% 30.00 in 10.0 mi SW 8.1 mph - N/A   Overcast
6:02 PM 55.4 °F 53.6 °F 94% 29.99 in 9.0 mi SW 6.9 mph - N/A   Overcast
6:13 PM 55.4 °F 53.6 °F 94% 30.00 in 7.0 mi SW 8.1 mph - N/A   Overcast
6:34 PM 53.6 °F 53.6 °F 100% 29.99 in 9.0 mi SW 8.1 mph - N/A   Overcast
6:53 PM 55.0 °F 53.1 °F 93% 30.00 in 10.0 mi SW 6.9 mph - N/A   Overcast
7:25 PM 55.4 °F 53.6 °F 94% 29.99 in 10.0 mi SW 8.1 mph - N/A   Overcast
7:41 PM 53.6 °F 53.6 °F 100% 29.99 in 9.0 mi SW 9.2 mph - N/A   Overcast
7:53 PM 54.0 °F 53.1 °F 97% 30.00 in 10.0 mi SW 8.1 mph - N/A   Overcast
8:11 PM 53.6 °F 53.6 °F 100% 29.98 in 6.0 mi SW 8.1 mph - N/A   Overcast
8:53 PM 54.0 °F 54.0 °F 100% 29.97 in 10.0 mi WSW 6.9 mph - N/A   Overcast
9:53 PM 54.0 °F 54.0 °F 100% 29.98 in 10.0 mi SW 6.9 mph - N/A   Overcast
10:02 PM 53.6 °F 53.6 °F 100% 29.97 in 10.0 mi SW 5.8 mph - N/A   Overcast
10:53 PM 54.0 °F 53.1 °F 97% 29.97 in 10.0 mi WSW 6.9 mph - N/A   Mostly Cloudy
11:48 PM 53.6 °F 53.6 °F 100% 29.94 in 10.0 mi Calm Calm - N/A   Overcast
11:53 PM 54.0 °F 53.1 °F 97% 29.95 in 10.0 mi Calm Calm - N/A   Overcast